METEOR 2-5 DEB

Satellite information

Favourite Embed

Satellite Type and Status

DEBRISIN ORBIT

Key statistics

Satellite METEOR 2-5 DEB at a glance.

Uptime

16749

Days in orbit

Revolutions

≈ 14.6

Per day

Orbit

LEO

Low Earth Orbit

Inclination

81.2

Latest

Satellite identification and parameters

Extended collection of information and parameters for METEOR 2-5 DEB.

Object identification

Identified? True

Debris? True

Object name: METEOR 2-5 DEB

International designator: 1979-095T

Object number (NORAD): 31404

Object ID (CCSDS): 31404

Country: COMMONWEALTH OF INDEPENDENT STATES (CIS)

Current information (Y/N): Y

RCS size: SMALL

Orbital parameters

Period: 98.486 minutes

Inclination: 81.1913 deg

SMA: 7064.416 km

Apoapsis: 692.33 km

Periapsis: 680.232 km

RAAN: 355.8232 deg

Eccentricy: 0.00085629

Argument of periapsis: 273.1043 deg

Mean anomaly: 106.6421 deg

Mean motion: 14.62137906 rev/day

Mean motion (dot): 0.00029414 rev/day2

B* drag term: 0.0058233809 1/REarth

Two-line elements (TLE)

Creation date: Sept. 7, 2025, 3:09 a.m.

Reference frame: TEME

Reference center: EARTH

Epoch: Sept. 6, 2025, 1:40 p.m. UTC

TLE line 0: 0 METEOR 2-5 DEB

TLE line 1: 1 31404U 79095T 25249.57012521 .00029414 00000-0 58234-2 0 9991

TLE line 2: 2 31404 81.1913 355.8232 0008563 273.1043 106.6421 14.62137906634908

Live tracking on map

Real-time ground track for satellite METEOR 2-5 DEB.

In-orbit conjunctions

A list of the most updated potential collisions computed for object METEOR 2-5 DEB.

Target Orbit TCA Probability of collision Miss distance Type
DMSP 5D-2 F15 DEB SSO 2024-09-26 04:45:20 0.0001582542 697.0 (m) DEBRIS

Associated space launch

Second generation soviet meteorological satellite

METEOR 2-5 DEB was lifted into orbit during the mission ‘Vostok 8A92M | Meteor-2 5’, on board a Vostok 8A92M space rocket.

The launch took place on Oct. 31, 1979, 9:25 a.m. from 43/4 (43R).

For more information about the launch, click the button.

Launch to space Vostok 8A92M | Meteor-2 5
Vostok 8A92M | Meteor-2 5

Agency: N/A

Status: Launch Successful

Launch date: Oct. 31, 1979, 9:25 a.m. UTC

Rocket: Vostok 8A92M

Launch pad: 43/4 (43R)

Location: Plesetsk Cosmodrome, Russian Federation

...

Latest news about this satellite

There are no fresh news available about this satellite. Check back as we update our databases every day.


Newsletter sign-up

Weekly statistics, charts and insights to help you stay on top of the space industry.